| time (UTC) | temp F | wind direction | speed knots | gust knots | rain 1hr in | rain 24hr in | rain mn in | humidity % | barometer mb |
| 20260502214612 | 54 | 180 | 0.0 | 0.0 | 0.00 | 0.00 | 0.00 | 13 | 985.2 |
| 20260502213612 | 54 | 247 | 0.0 | 0.0 | 0.00 | 0.00 | 0.00 | 13 | 985.1 |
| 20260502212612 | 54 | 270 | 0.0 | 0.0 | 0.00 | 0.00 | 0.00 | 13 | 985.1 |
| 20260502211612 | 54 | 292 | 0.0 | 0.0 | 0.00 | 0.00 | 0.00 | 5 | 985.0 |
| 20260502210612 | 55 | 270 | 0.0 | 0.0 | 0.00 | 0.00 | 0.00 | 5 | 985.0 |
| 20260502205612 | 55 | 247 | 0.0 | 0.0 | 0.00 | 0.00 | 0.00 | 5 | 985.1 |
| 20260502204612 | 56 | 270 | 0.0 | 0.0 | 0.00 | 0.00 | 0.00 | 5 | 985.1 |
| 20260502203613 | 56 | 225 | 0.0 | 0.0 | 0.00 | 0.00 | 0.00 | 5 | 985.3 |
| 20260502202612 | 57 | 180 | 0.0 | 0.0 | 0.00 | 0.00 | 0.00 | 5 | 985.3 |
| 20260502201617 | 58 | 180 | 0.0 | 0.0 | 0.00 | 0.00 | 0.00 | 5 | 985.2 |
| 20260502200612 | 58 | 247 | 0.0 | 0.0 | 0.00 | 0.00 | 0.00 | 5 | 985.2 |
| 20260502195611 | 59 | 202 | 0.0 | 0.0 | 0.00 | 0.00 | 0.00 | 5 | 985.0 |
| 20260502194611 | 60 | 247 | 0.0 | 0.0 | 0.00 | 0.00 | 0.00 | 5 | 985.0 |
| 20260502193611 | 62 | 225 | 0.0 | 0.0 | 0.00 | 0.00 | 0.00 | 5 | 984.8 |
| 20260502191614 | 64 | 225 | 0.0 | 0.0 | 0.00 | 0.00 | 0.00 | 5 | 984.8 |
| 20260502190611 | 65 | 202 | 0.0 | 0.0 | 0.00 | 0.00 | 0.00 | 5 | 984.8 |
| 20260502185611 | 66 | 157 | 0.0 | 0.0 | 0.00 | 0.00 | 0.00 | 5 | 984.8 |
| 20260502184610 | 68 | 157 | 0.0 | 0.0 | 0.00 | 0.00 | 0.00 | 5 | 984.8 |
| 20260502183610 | 70 | 180 | 0.0 | 0.0 | 0.00 | 0.00 | 0.00 | 5 | 985.0 |
| 20260502182610 | 71 | 180 | 0.0 | 0.0 | 0.00 | 0.00 | 0.00 | 5 | 985.0 |
| 20260502181610 | 71 | 202 | 0.0 | 0.0 | 0.00 | 0.00 | 0.00 | 5 | 984.9 |
| 20260502180610 | 72 | 180 | 0.0 | 0.0 | 0.00 | 0.00 | 0.00 | 5 | 984.9 |
| 20260502163610 | 79 | 135 | 1.7 | 2.6 | 0.00 | 0.00 | 0.00 | 5 | 985.7 |
| 20260502162609 | 79 | 157 | 2.6 | 3.5 | 0.00 | 0.00 | 0.00 | 5 | 985.7 |
| 20260502161609 | 80 | 180 | 1.7 | 3.5 | 0.00 | 0.00 | 0.00 | 5 | 985.9 |
| 20260502160609 | 80 | 225 | 0.9 | 2.6 | 0.00 | 0.00 | 0.00 | 5 | 985.9 |
| 20260502151614 | 82 | 247 | 2.6 | 3.5 | 0.00 | 0.00 | 0.00 | 5 | 986.8 |
| 20260502150614 | 82 | 112 | 2.6 | 6.1 | 0.00 | 0.00 | 0.00 | 5 | 986.8 |
| 20260502130613 | 85 | 135 | 2.6 | 3.5 | 0.00 | 0.00 | 0.00 | 5 | 988.6 |
| 20260502122613 | 85 | 67 | 0.9 | 0.0 | 0.00 | 0.00 | 0.00 | 5 | 988.9 |
| 20260502121612 | 85 | 292 | 1.7 | 2.6 | 0.00 | 0.00 | 0.00 | 5 | 988.9 |
| 20260502120612 | 83 | 112 | 1.7 | 3.5 | 0.00 | 0.00 | 0.00 | 5 | 988.9 |
| 20260502115612 | 83 | 180 | 1.7 | 2.6 | 0.00 | 0.00 | 0.00 | 11 | 989.1 |
| 20260502114612 | 83 | 22 | 1.7 | 0.0 | 0.00 | 0.00 | 0.00 | 11 | 989.1 |
| 20260502113612 | 83 | 135 | 1.7 | 0.0 | 0.00 | 0.00 | 0.00 | 11 | 989.4 |
| 20260502112612 | 83 | 135 | 1.7 | 2.6 | 0.00 | 0.00 | 0.00 | 11 | 989.4 |
| 20260502111612 | 82 | 157 | 1.7 | 4.3 | 0.00 | 0.00 | 0.00 | 12 | 989.7 |
| 20260502110612 | 82 | 202 | 1.7 | 7.8 | 0.00 | 0.00 | 0.00 | 12 | 989.7 |
| 20260502105612 | 82 | 157 | 1.7 | 7.0 | 0.00 | 0.00 | 0.00 | 12 | 989.6 |
| 20260502104612 | 81 | 180 | 1.7 | 1.7 | 0.00 | 0.00 | 0.00 | 12 | 989.6 |
| 20260502103612 | 82 | 112 | 0.9 | 6.1 | 0.00 | 0.00 | 0.00 | 12 | 989.6 |
| 20260502102612 | 80 | 157 | 0.9 | 0.0 | 0.00 | 0.00 | 0.00 | 12 | 989.6 |
| 20260502101611 | 80 | 202 | 1.7 | 2.6 | 0.00 | 0.00 | 0.00 | 12 | 989.7 |
| 20260502100611 | 81 | 225 | 0.0 | 3.5 | 0.00 | 0.00 | 0.00 | 14 | 989.7 |
| 20260502090611 | 76 | 135 | 0.9 | 0.0 | 0.00 | 0.00 | 0.00 | 20 | 990.2 |
| 20260502070610 | 59 | 337 | 0.0 | 0.0 | 0.00 | 0.00 | 0.00 | 35 | 990.4 |
| 20260502065610 | 56 | 22 | 0.0 | 0.0 | 0.00 | 0.00 | 0.00 | 35 | 990.2 |
| 20260502064610 | 55 | 22 | 0.0 | 0.0 | 0.00 | 0.00 | 0.00 | 37 | 990.2 |
| 20260502063610 | 55 | 67 | 0.0 | 0.0 | 0.00 | 0.00 | 0.00 | 36 | 990.2 |
| 20260502062609 | 54 | 135 | 0.0 | 0.0 | 0.00 | 0.00 | 0.00 | 36 | 990.2 |
| 20260502061610 | 51 | 67 | 0.0 | 0.0 | 0.00 | 0.00 | 0.00 | 36 | 990.4 |
| 20260502060609 | 49 | 292 | 0.0 | 0.0 | 0.00 | 0.00 | 0.00 | 35 | 990.4 |
| 20260502055610 | 49 | 292 | 0.0 | 0.0 | 0.00 | 0.00 | 0.00 | 35 | 990.2 |
| 20260502054609 | 48 | 360 | 0.0 | 0.0 | 0.00 | 0.00 | 0.00 | 34 | 990.2 |
| 20260502053609 | 46 | 270 | 0.0 | 0.0 | 0.00 | 0.00 | 0.00 | 34 | 990.4 |
| 20260502052614 | 45 | 270 | 0.0 | 0.0 | 0.00 | 0.00 | 0.00 | 33 | 990.4 |
| 20260502051614 | 45 | 270 | 0.0 | 0.0 | 0.00 | 0.00 | 0.00 | 33 | 990.2 |
| 20260502050614 | 45 | 270 | 0.0 | 0.0 | 0.00 | 0.00 | 0.00 | 32 | 990.2 |
| 20260502045614 | 44 | 180 | 0.0 | 0.0 | 0.00 | 0.00 | 0.00 | 32 | 990.1 |
| 20260502044614 | 43 | 225 | 0.0 | 0.0 | 0.00 | 0.00 | 0.00 | 32 | 990.1 |
| 20260502043614 | 43 | 292 | 0.0 | 0.0 | 0.00 | 0.00 | 0.00 | 32 | 989.9 |
| 20260502042614 | 43 | 337 | 0.0 | 0.0 | 0.00 | 0.00 | 0.00 | 31 | 989.9 |
| 20260502041613 | 42 | 337 | 0.0 | 0.0 | 0.00 | 0.00 | 0.00 | 30 | 989.9 |
| 20260502040613 | 42 | 337 | 0.0 | 0.0 | 0.00 | 0.00 | 0.00 | 30 | 989.9 |
| 20260502035613 | 42 | 337 | 0.0 | 0.0 | 0.00 | 0.00 | 0.00 | 30 | 989.9 |
| 20260502034613 | 42 | 337 | 0.0 | 0.0 | 0.00 | 0.00 | 0.00 | 30 | 989.9 |
| 20260502033613 | 42 | 180 | 0.0 | 0.0 | 0.00 | 0.00 | 0.00 | 30 | 990.1 |
| 20260502032613 | 42 | 180 | 0.0 | 0.0 | 0.00 | 0.00 | 0.00 | 30 | 990.1 |
| 20260502031613 | 42 | 270 | 0.0 | 0.0 | 0.00 | 0.00 | 0.00 | 27 | 990.0 |
| 20260502030613 | 42 | 202 | 0.0 | 0.0 | 0.00 | 0.00 | 0.00 | 27 | 990.0 |
| 20260502025613 | 42 | 225 | 0.0 | 0.0 | 0.00 | 0.00 | 0.00 | 27 | 990.1 |
| 20260502024612 | 42 | 247 | 0.0 | 0.0 | 0.00 | 0.00 | 0.00 | 25 | 990.1 |
| 20260502023612 | 43 | 247 | 0.0 | 0.0 | 0.00 | 0.00 | 0.00 | 25 | 990.0 |
| 20260502022612 | 43 | 270 | 0.0 | 0.0 | 0.00 | 0.00 | 0.00 | 23 | 990.0 |
| 20260502021612 | 43 | 247 | 0.0 | 0.0 | 0.00 | 0.00 | 0.00 | 23 | 989.9 |
| 20260502020612 | 42 | 225 | 0.0 | 0.0 | 0.00 | 0.00 | 0.00 | 23 | 989.9 |
| 20260502015612 | 43 | 247 | 0.0 | 0.0 | 0.00 | 0.00 | 0.00 | 24 | 990.0 |
| 20260502014612 | 43 | 247 | 0.0 | 0.0 | 0.00 | 0.00 | 0.00 | 24 | 990.0 |
| 20260502013612 | 44 | 225 | 0.0 | 0.0 | 0.00 | 0.00 | 0.00 | 22 | 990.1 |
| 20260502012612 | 44 | 270 | 0.0 | 0.0 | 0.00 | 0.00 | 0.00 | 22 | 990.1 |
| 20260502011612 | 44 | 270 | 0.0 | 0.0 | 0.00 | 0.00 | 0.00 | 22 | 990.2 |
| 20260502010612 | 44 | 270 | 0.0 | 0.0 | 0.00 | 0.00 | 0.00 | 22 | 990.2 |
| 20260502005612 | 44 | 247 | 0.0 | 0.0 | 0.00 | 0.00 | 0.00 | 22 | 990.1 |
| 20260502004611 | 44 | 270 | 0.0 | 0.0 | 0.00 | 0.00 | 0.00 | 18 | 990.1 |
| 20260502003611 | 44 | 247 | 0.0 | 0.0 | 0.00 | 0.00 | 0.00 | 18 | 990.3 |
| 20260502002611 | 44 | 270 | 0.0 | 0.0 | 0.00 | 0.00 | 0.00 | 18 | 990.3 |
| 20260502001611 | 45 | 247 | 0.0 | 0.0 | 0.00 | 0.00 | 0.00 | 17 | 990.6 |
| 20260502000612 | 44 | 247 | 0.0 | 0.0 | 0.00 | 0.00 | 0.00 | 18 | 990.6 |
| 20260501235611 | 45 | 225 | 0.0 | 0.0 | 0.00 | 0.00 | 0.00 | 17 | 990.8 |
| 20260501234611 | 45 | 225 | 0.0 | 0.0 | 0.00 | 0.00 | 0.00 | 17 | 990.8 |
| 20260501233611 | 45 | 225 | 0.0 | 0.0 | 0.00 | 0.00 | 0.00 | 8 | 990.9 |
| 20260501232611 | 45 | 202 | 0.0 | 0.0 | 0.00 | 0.00 | 0.00 | 8 | 990.9 |
| 20260501231611 | 46 | 247 | 0.0 | 0.0 | 0.00 | 0.00 | 0.00 | 8 | 990.8 |
| 20260501230611 | 46 | 225 | 0.0 | 0.0 | 0.00 | 0.00 | 0.00 | 8 | 990.8 |
| 20260501225611 | 46 | 247 | 0.0 | 0.0 | 0.00 | 0.00 | 0.00 | 8 | 990.9 |
| 20260501224611 | 46 | 247 | 0.0 | 0.0 | 0.00 | 0.00 | 0.00 | 8 | 990.9 |
| 20260501222610 | 47 | 247 | 0.0 | 0.0 | 0.00 | 0.00 | 0.00 | 8 | 990.9 |
| 20260501221610 | 47 | 270 | 0.0 | 0.0 | 0.00 | 0.00 | 0.00 | 8 | 991.1 |
| 20260501220610 | 48 | 270 | 0.0 | 0.0 | 0.00 | 0.00 | 0.00 | 8 | 991.1 |
| 20260501215610 | 48 | 180 | 0.0 | 0.0 | 0.00 | 0.00 | 0.00 | 8 | 991.1 |